{"data":{"norad_id":61969,"intl_designator":"2024-210L","name":"STARLINK-32450","alt_names":[],"object_type":"PAYLOAD","status":"ACTIVE","operator":null,"country":"US","launch_date":"2024-11-14","launch_site_code":"AFETR","launch_vehicle":null,"mission":null,"orbit_class":"UNKNOWN","rcs_meters":null,"size_class":null,"mass_kg":null,"dimensions":null,"purposes":["comms"],"wikipedia_slug":null,"has_3d_model":false,"image_url":null,"decayed_at":null,"tle_current":{"epoch":"2026-05-24T22:32:06.404928Z","epoch_age_seconds":87239,"freshness":"FRESH","line1":"1 61969U 24210L   26144.93896302  .00014679  00000+0  54175-3 0  9998","line2":"2 61969  43.0000 102.0853 0001342 256.8713 103.1989 15.27587487 86527","mean_motion":15.27587487,"eccentricity":0.0001342,"inclination_deg":43,"raan_deg":102.0853,"arg_perigee_deg":256.8713,"mean_anomaly_deg":103.1989,"bstar":0.00054175,"rev_number":8652,"period_min":94.26628669419,"perigee_km":482.10590919428,"apogee_km":483.94744552529,"semimajor_km":6861.1636773598,"source":"CELESTRAK","updated_at":"2026-05-25T13:38:19.514001Z"}}}